Station GSLM4 - Gravelly Shoal Light, MI Image indicating link to RSS feed of recent meteorological observations for station GSLM4


Conditions at GSLM4 as of
(5:40 pm EDT)
2140 GMT on 07/18/2024:
     

Click on the graph icon in the table below to see a time series plot of the last five days of that observation.

5-day plot - Wind Direction Wind Direction (WDIR):SSE ( 150 deg true )
5-day plot - Wind Speed Wind Speed (WSPD): 4.1 kts
5-day plot - Wind Gust Wind Gust (GST): 7.0 kts
5-day plot - Atmospheric Pressure Atmospheric Pressure (PRES):30.15 in
5-day plot - Air Temperature Air Temperature (ATMP): 67.8 °F
5-day plot - Wind Speed at 10 Meters Wind Speed at 10 meters (WSPD10M): 3.9 kts
5-day plot - Wind Speed at 20 Meters Wind Speed at 20 meters (WSPD20M): 3.9 kts
5-day plot -  Wind Speed, Wind Gust and Atmospheric Pressure Combined plot of Wind Speed, Gust, and Air Pressure
Previous observations
TIME
(EDT)
5-day plot - Wind Direction
WDIR
 
5-day plot - Wind Speed
WSPD
kts
5-day plot - Wind Gust
GST
kts
5-day plot - Wave Height
WVHT
ft
5-day plot - Dominant Wave Period
DPD
sec
5-day plot - Average Wave Period
APD
sec
5-day plot - Mean Wave Direction
MWD
 
5-day plot - Atmospheric Pressure
PRES
in
5-day plot - Pressure Tendency
PTDY
in
5-day plot - Air Temperature
ATMP
°F
5-day plot - Water Temperature
WTMP
°F
5-day plot - Dew Point
DEWP
°F
5-day plot - Salinity
SAL
psu
5-day plot - Visibility
VIS
nmi
5-day plot - Tide (above MLLW)
TIDE
ft
2024-07-18 05:30 pmSSE 1.9 6.0----30.15- 68.5-----
2024-07-18 05:20 pm SE 4.1 6.0----30.15- 66.9-----
2024-07-18 05:10 pm SE 5.1 7.0----30.15- 66.9-----
2024-07-18 05:00 pmSSE 4.1 7.0----30.15-0.01 66.6-----
2024-07-18 04:50 pm SE 6.0 7.0----30.15- 66.4-----
2024-07-18 04:40 pm SE 5.1 7.0----30.15- 66.4-----
2024-07-18 04:30 pm SE 2.9 5.1----30.15- 66.4-----
2024-07-18 04:20 pmESE 5.1 7.0----30.16- 66.2-----
2024-07-18 04:00 pm SE 2.9 6.0----30.16+0.00 66.2-----
2024-07-18 03:50 pmSSE 5.1 7.0----30.16- 66.2-----
2024-07-18 03:40 pm SE 5.1 7.0----30.16- 65.8-----
2024-07-18 03:30 pmSSE 4.1 8.0----30.16- 65.8-----
2024-07-18 03:20 pm SE 6.0 7.0----30.16- 65.8-----
2024-07-18 03:10 pm SE 6.0 8.0----30.16- 65.5-----
2024-07-18 03:00 pm SE 6.0 7.0----30.16+0.00 65.7-----
2024-07-18 02:50 pmESE 4.1 5.1----30.16- 65.7-----
2024-07-18 02:40 pmESE 5.1 6.0----30.16- 65.5-----
2024-07-18 02:30 pm E 4.1 6.0----30.16- 65.3-----
2024-07-18 02:20 pm E 5.1 7.0----30.16- 65.5-----
2024-07-18 02:10 pm E 5.1 7.0----30.16- 65.3-----
2024-07-18 02:00 pmESE 4.1 7.0----30.16+0.01 65.3-----
2024-07-18 01:50 pm E 6.0 7.0----30.16- 65.1-----
2024-07-18 01:40 pmENE 5.1 7.0----30.16- 64.9-----
2024-07-18 01:30 pm E 5.1 7.0----30.16- 64.9-----
2024-07-18 01:20 pm E 6.0 7.0----30.16- 65.1-----
2024-07-18 01:10 pmENE 5.1 7.0----30.16- 64.8-----
2024-07-18 01:00 pm E 5.1 7.0----30.16+0.02 64.8-----
2024-07-18 12:50 pmENE 5.1 6.0----30.16- 64.8-----
2024-07-18 12:40 pmNNE 5.1 6.0----30.16- 64.9-----
2024-07-18 12:30 pmNNE 5.1 8.0----30.16- 64.8-----
2024-07-18 12:20 pmNNE 6.0 9.9----30.16- 64.6-----
2024-07-18 12:10 pmNNE 8.0 9.9----30.16- 64.4-----
2024-07-18 12:00 pmNNE 8.0 11.1----30.16+0.04 64.2-----
2024-07-18 11:50 am N 8.0 11.1----30.16- 64.2-----
2024-07-18 11:40 amNNE 8.0 9.9----30.16- 64.2-----
2024-07-18 11:30 am N 8.0 12.0----30.16- 63.9-----
2024-07-18 11:20 am N 9.9 12.0----30.16- 63.9-----
2024-07-18 11:10 am N 8.9 14.0----30.15- 63.5-----
2024-07-18 11:00 amNNW 11.1 13.0----30.15+0.03 63.5-----
2024-07-18 10:40 amNNW 14.0 15.9----30.15- 63.3-----
2024-07-18 10:30 amNNW 13.0 17.1----30.15- 63.0-----
2024-07-18 10:20 amNNW 13.0 15.9----30.14- 62.8-----
2024-07-18 10:10 am N 14.0 17.1----30.14- 62.6-----
2024-07-18 10:00 amNNW 14.0 18.1----30.14+0.04 62.6-----
2024-07-18 09:50 amNNW 15.0 17.1----30.14- 62.2-----
2024-07-18 09:40 amNNW 15.0 18.1----30.14- 61.9-----
2024-07-18 09:30 amNNW 15.0 18.1----30.14- 61.7-----
2024-07-18 09:20 am NW 14.0 17.1----30.13- 61.5-----
2024-07-18 09:10 amNNW 15.9 19.0----30.13- 61.3-----
2024-07-18 09:00 amNNW 14.0 17.1----30.12+0.03 60.8-----
2024-07-18 08:50 am NW 14.0 18.1----30.12- 60.3-----
2024-07-18 08:40 amNNW 13.0 15.9----30.13- 60.1-----
2024-07-18 08:30 amNNW 12.0 17.1----30.12- 59.7-----
2024-07-18 08:20 am NW 13.0 17.1----30.12- 59.4-----
2024-07-18 08:10 am NW 14.0 15.9----30.12- 59.0-----
2024-07-18 08:00 am NW 14.0 17.1----30.12+0.05 58.5-----
2024-07-18 07:50 am NW 14.0 15.9----30.11- 58.3-----
2024-07-18 07:40 am NW 14.0 15.9----30.11- 58.3-----
2024-07-18 07:30 am NW 14.0 15.9----30.11- 58.5-----
2024-07-18 07:20 am NW 12.0 15.0----30.11- 58.6-----
2024-07-18 07:10 am NW 13.0 17.1----30.10- 58.5-----
2024-07-18 07:00 am NW 13.0 15.9----30.10+0.06 58.5-----
2024-07-18 06:50 am NW 14.0 17.1----30.09- 58.5-----
2024-07-18 06:40 am NW 15.0 17.1----30.09- 59.0-----
2024-07-18 06:30 am NW 15.0 17.1----30.09- 58.5-----
2024-07-18 06:20 am NW 14.0 17.1----30.09- 58.5-----
2024-07-18 06:10 am NW 14.0 18.1----30.09- 58.5-----
2024-07-18 06:00 am NW 14.0 17.1----30.09+0.04 58.8-----
2024-07-18 05:50 am NW 14.0 18.1----30.09- 59.2-----
2024-07-18 05:40 am NW 15.0 17.1----30.08- 59.2-----
2024-07-18 05:20 am NW 14.0 18.1----30.07- 59.2-----
2024-07-18 05:10 amWNW 15.0 17.1----30.07- 59.4-----
2024-07-18 05:00 am NW 15.0 17.1----30.07+0.03 59.2-----
2024-07-18 04:50 am NW 15.0 18.1----30.06- 59.2-----
2024-07-18 04:40 amWNW 15.9 18.1----30.06- 59.4-----
2024-07-18 04:30 amWNW 15.0 19.0----30.06- 59.5-----
2024-07-18 04:20 amWNW 14.0 18.1----30.06- 59.5-----
2024-07-18 04:10 am NW 13.0 18.1----30.06- 59.5-----
2024-07-18 04:00 am NW 17.1 20.0----30.04+0.00 59.5-----
2024-07-18 03:50 amWNW 15.9 19.0----30.05- 59.7-----
2024-07-18 03:40 amWNW 15.9 19.0----30.05- 59.7-----
2024-07-18 03:30 amWNW 15.0 17.1----30.05- 59.5-----
2024-07-18 03:20 amWNW 14.0 17.1----30.05- 59.7-----
2024-07-18 03:10 amWNW 14.0 18.1----30.05- 59.9-----
2024-07-18 03:00 amWNW 15.9 18.1----30.05+0.02 59.9-----
2024-07-18 02:50 amWNW 15.0 18.1----30.05- 60.3-----
2024-07-18 02:40 amWNW 14.0 15.9----30.05- 60.4-----
2024-07-18 02:30 amWNW 13.0 15.9----30.05- 60.6-----
2024-07-18 02:20 amWNW 14.0 17.1----30.05- 60.8-----
2024-07-18 02:10 amWNW 14.0 15.9----30.04- 61.2-----
2024-07-18 02:00 amWNW 13.0 17.1----30.04+0.02 61.2-----
2024-07-18 01:50 amWNW 13.0 18.1----30.04- 61.5-----
2024-07-18 01:40 amWNW 14.0 15.9----30.04- 61.9-----
2024-07-18 01:30 amWNW 13.0 15.0----30.04- 62.1-----
2024-07-18 01:20 am NW 13.0 15.0----30.04- 62.2-----
2024-07-18 01:10 amWNW 13.0 15.0----30.04- 62.2-----
2024-07-18 01:00 amWNW 12.0 15.0----30.04+0.04 62.4-----
2024-07-18 12:50 am NW 11.1 15.9----30.04- 62.8-----
2024-07-18 12:40 am NW 14.0 17.1----30.04- 62.8-----
2024-07-18 12:30 am NW 14.0 19.0----30.04- 62.8-----
2024-07-18 12:20 amWNW 13.0 15.0----30.03- 63.0-----
2024-07-18 12:00 amWNW 15.0 18.1----30.03+0.06 63.7-----
2024-07-17 11:50 pm NW 12.0 15.9----30.03- 63.9-----
2024-07-17 11:40 pm NW 12.0 14.0----30.03- 64.0-----
2024-07-17 11:30 pmWNW 11.1 14.0----30.02- 64.6-----
2024-07-17 11:20 pm NW 13.0 15.0----30.02- 64.6-----
2024-07-17 11:10 pm NW 14.0 15.9----30.02- 64.9-----
2024-07-17 11:00 pm NW 13.0 15.9----30.02+0.07 65.3-----
2024-07-17 10:50 pm NW 12.0 15.0----30.01- 65.5-----
2024-07-17 10:40 pm NW 11.1 14.0----30.01- 65.8-----
2024-07-17 10:30 pm NW 13.0 15.0----30.00- 66.2-----
2024-07-17 10:20 pm NW 12.0 15.0----30.00- 66.6-----
2024-07-17 10:10 pm NW 14.0 15.9----30.00- 66.7-----
2024-07-17 10:00 pm NW 13.0 15.9----30.00+0.06 67.1-----
2024-07-17 09:50 pm NW 15.0 17.1----29.99- 67.5-----
2024-07-17 09:40 pm NW 14.0 15.9----29.99- 67.6-----
2024-07-17 09:30 pm NW 13.0 15.9----29.98- 67.8-----
2024-07-17 09:20 pm NW 14.0 15.9----29.98- 68.4-----
2024-07-17 09:10 pmWNW 13.0 15.0----29.98- 68.7-----
2024-07-17 09:00 pmWNW 14.0 17.1----29.97+0.05 69.1-----
2024-07-17 08:50 pmWNW 15.9 18.1----29.96- 69.6-----
2024-07-17 08:40 pmWNW 14.0 17.1----29.96- 70.0-----
2024-07-17 08:30 pmWNW 14.0 15.0----29.96- 70.2-----
2024-07-17 08:20 pmWNW 13.0 18.1----29.96- 70.5-----
2024-07-17 08:10 pmWNW 15.9 18.1----29.95- 70.9-----
2024-07-17 08:00 pmWNW 14.0 15.9----29.95+0.02 71.2-----
2024-07-17 07:50 pmWNW 6.0 8.9----29.95- 71.8-----
2024-07-17 07:40 pmWNW 2.9 5.1----29.94- 72.3-----
2024-07-17 07:30 pmWNW 4.1 5.1----29.94- 71.6-----
2024-07-17 07:20 pmWNW 1.9 4.1----29.94- 71.2-----
2024-07-17 07:10 pmWNW 1.9 2.9----29.94- 71.8-----
2024-07-17 07:00 pm NW 2.9 5.1----29.94+0.03 70.3-----
2024-07-17 06:40 pm- 0.0 2.9----29.93- 71.2-----
2024-07-17 06:30 pmENE 1.9 4.1----29.93- 70.5-----
2024-07-17 06:20 pmENE 2.9 6.0----29.92- 69.8-----
2024-07-17 06:10 pm E 4.1 7.0----29.92- 69.3-----
2024-07-17 06:00 pmENE 6.0 7.0----29.92+0.01 69.3-----
2024-07-17 05:50 pm NE 4.1 6.0----29.92- 69.3-----